This is the latest recevied weather packets stored in our database for station/object DB2AG-10. If no packets are shown the sender has not sent any weather packets the latest 10 day(s).
| Time | Temp. | Humidity | Pressure | Rain* | Wind** | Luminosity | Snow |
|---|---|---|---|---|---|---|---|
| 1777672924 | 21.11° C | 36% | 1024.8 hPa | - | - | - | - |
| 1777672024 | 21.11° C | 36% | 1024.9 hPa | - | - | - | - |
| 1777671124 | 21.67° C | 36% | 1024.9 hPa | - | - | - | - |
| 1777670223 | 21.67° C | 36% | 1025.1 hPa | - | - | - | - |
| 1777669323 | 21.67° C | 36% | 1025.2 hPa | - | - | - | - |
| 1777668423 | 22.22° C | 36% | 1025.3 hPa | - | - | - | - |
| 1777667523 | 22.22° C | 36% | 1025.2 hPa | - | - | - | - |
| 1777666623 | 22.78° C | 35% | 1025.4 hPa | - | - | - | - |
| 1777665723 | 22.78° C | 35% | 1025.5 hPa | - | - | - | - |
| 1777664823 | 23.33° C | 35% | 1025.5 hPa | - | - | - | - |
| 1777663923 | 23.33° C | 36% | 1025.6 hPa | - | - | - | - |
| 1777663023 | 23.89° C | 35% | 1025.5 hPa | - | - | - | - |
| 1777662122 | 23.89° C | 35% | 1025.4 hPa | - | - | - | - |
| 1777661222 | 24.44° C | 35% | 1025.4 hPa | - | - | - | - |
| 1777660322 | 24.44° C | 35% | 1025.4 hPa | - | - | - | - |
| 1777659422 | 24.44° C | 35% | 1025.5 hPa | - | - | - | - |
| 1777658522 | 25° C | 35% | 1025.4 hPa | - | - | - | - |
| 1777657622 | 24.44° C | 34% | 1025.2 hPa | - | - | - | - |
| 1777656722 | 24.44° C | 35% | 1025.2 hPa | - | - | - | - |
| 1777655822 | 24.44° C | 35% | 1025.3 hPa | - | - | - | - |
| 1777654922 | 24.44° C | 33% | 1025.4 hPa | - | - | - | - |
| 1777654022 | 24.44° C | 33% | 1025.5 hPa | - | - | - | - |
| 1777653121 | 24.44° C | 34% | 1025.6 hPa | - | - | - | - |
| 1777652221 | 24.44° C | 33% | 1025.6 hPa | - | - | - | - |
| 1777651321 | 24.44° C | 32% | 1025.8 hPa | - | - | - | - |
* Rain since midnight (hover to see other rain measurements)
** Current wind speed in m/s (hover to see current wind gust speed)